DEBRISSAT-2

Last updated on Mon Jun 01 2020 05:10:24 GMT+0000 (Coordinated Universal Time)

1 43680U 98067PR 20151.69072398 .11468650 12477-4 51439-3 0 9995 2 43680 51.6154 356.6377 0010832 273.4515 86.5274 16.42437352111263

Satellite not in orbit